Weather in Palmerston North

New Zealand     40°21′30″S   175°36′40″E
temp.,
°C
wind,
m/s
gust,
m/s
humid.,
%
clouds,
%
prec.,
mm/h
press.,
hPa
HPBL,
m
13 may, thu
thu1300:00+9se4106699 0.3 10301095
03:00+7sse38604 0.0 1029413
06:00+4se29765 0.0 1030229
09:00+8se39655 0.0 1030526
12:00+12ese584374 0.1 10281996
15:00+12se474972 0.0 10261824
18:00+6se26675 0.0 1027129
21:00+4ese26813 0.0 1026117
14 may, fri
fri1400:00+3e23845 0.0 102460
03:00+3e22845 0.0 102242
06:00+2ene22914 0.0 102141
09:00+7ene23750 0.0 1020172
12:00+13ne12520 0.0 1017860
15:00+14w33385 0.0 1013947
18:00+6w0074100 0.0 101210
21:00+4ne1177100 0.0 101011
15 may, sat
sat1500:00+6ene2262100 0.0 100646
03:00+7e1390100 1.8 100270
06:00+10nnw2119783 3.8 1002361
09:00+14nw5139176 0.1 1003893
12:00+16wnw612784 0.4 10041183
15:00+16wnw612780 0.5 10051129
18:00+13wnw310897 0.5 1008531
21:00+10n229743 0.0 101052
16 may, sun
sun1600:00+9n269819 0.1 1012144
03:00+8nne239798 0.0 101252
06:00+7ne119781 0.0 101220
09:00+10ene1386100 0.0 1012100
12:00+17nw3759100 0.0 1010904
15:00+18nnw41259100 0.0 10061235
18:00+16n51462100 0.0 10041276
21:00+14nnw41685100 0.9 10031418
17 may, mon
mon1700:00+13nnw51393100 4.5 10021195
03:00+11wnw7178847 1.0 10041438
06:00+11wnw6138387 1.5 10071054
09:00+13wnw712660 0.0 10101271
12:00+15w712561 0.0 10111700
15:00+15wnw612590 0.0 10111519
18:00+12nw3107151 0.0 1012495
21:00+11nnw4118294 0.3 1012665